When you browse on this site, cookies collect data to enhance your experience and personalize the content and advertising you see.
Visit our Privacy Policy to learn more. By continuing to use the site, you agree to this use of cookies and data.
  • In Österreich
  • Länderverzeichnis
  • Für 7 Tage
  • Wassertemperatur
  • Wetterkarte
  • News
  • Widgets
  • user-avatar
    Anmelden

    Stündliche Wetter Lenguazaque

    Heute, 23 September, Montag

    Zeit Temperatur Niederschläge Wind Luftdruck Luftfeuchtigkeit
    00:00 +10°C° 0 mm 1 m/S 552 mmHg 96%
    01:00 +10°C° 0 mm 1 m/S 552 mmHg 96%
    02:00 +10°C° 0 mm 1 m/S 552 mmHg 95%
    03:00 +9°C° 0 mm 1 m/S 552 mmHg 95%
    04:00 +9°C° 0 mm 1 m/S 551 mmHg 94%
    05:00 +10°C° 0 mm 1 m/S 552 mmHg 92%
    06:00 +11°C° 0 mm 1 m/S 553 mmHg 89%
    07:00 +12°C° 0 mm 1 m/S 554 mmHg 87%
    08:00 +14°C° 0 mm 1 m/S 555 mmHg 77%
    09:00 +16°C° 0 mm 1 m/S 556 mmHg 67%
    10:00 +18°C° 0 mm 2 m/S 557 mmHg 57%
    11:00 +19°C° 0.2 mm 2 m/S 557 mmHg 58%
    12:00 +19°C° 0.2 mm 2 m/S 556 mmHg 59%
    13:00 +19°C° 0.2 mm 2 m/S 555 mmHg 60%
    14:00 +18°C° 0.6 mm 2 m/S 555 mmHg 66%
    15:00 +18°C° 0.6 mm 2 m/S 554 mmHg 72%
    16:00 +17°C° 0.6 mm 2 m/S 553 mmHg 78%
    17:00 +15°C° 0.8 mm 2 m/S 553 mmHg 84%
    18:00 +14°C° 0.8 mm 1 m/S 552 mmHg 90%
    19:00 +12°C° 0.8 mm 1 m/S 552 mmHg 96%
    20:00 +12°C° 0.4 mm 1 m/S 552 mmHg 96%
    21:00 +11°C° 0.4 mm 1 m/S 552 mmHg 96%
    22:00 +11°C° 0.4 mm 1 m/S 552 mmHg 96%
    23:00 +10°C° 0.1 mm 1 m/S 552 mmHg 94%

    Morgen, 24 September, Dienstag

    Zeit Temperatur Niederschläge Wind Luftdruck Luftfeuchtigkeit
    00:00 +10°C° 0.1 mm 1 m/S 551 mmHg 93%
    01:00 +9°C° 0.1 mm 1 m/S 551 mmHg 92%
    02:00 +9°C° 0 mm 1 m/S 551 mmHg 90%
    03:00 +9°C° 0 mm 1 m/S 551 mmHg 88%
    04:00 +9°C° 0 mm 1 m/S 551 mmHg 86%
    05:00 +10°C° 0 mm 1 m/S 552 mmHg 84%
    06:00 +11°C° 0 mm 1 m/S 552 mmHg 82%
    07:00 +11°C° 0 mm 1 m/S 553 mmHg 81%
    08:00 +14°C° 0 mm 1 m/S 555 mmHg 73%
    09:00 +16°C° 0 mm 1 m/S 556 mmHg 66%
    10:00 +20°C° 0 mm 1 m/S 558 mmHg 58%
    11:00 +20°C° 0.3 mm 1 m/S 557 mmHg 60%
    12:00 +19°C° 0.3 mm 2 m/S 556 mmHg 62%
    13:00 +19°C° 0.3 mm 2 m/S 556 mmHg 63%
    14:00 +18°C° 0.7 mm 2 m/S 555 mmHg 69%
    15:00 +18°C° 0.7 mm 1 m/S 554 mmHg 75%
    16:00 +15°C° 0.7 mm 1 m/S 553 mmHg 80%
    17:00 +14°C° 0.5 mm 1 m/S 553 mmHg 85%
    18:00 +13°C° 0.5 mm 1 m/S 552 mmHg 89%
    19:00 +12°C° 0.5 mm 1 m/S 552 mmHg 93%
    20:00 +12°C° 0.2 mm 1 m/S 553 mmHg 94%
    21:00 +12°C° 0.2 mm 1 m/S 553 mmHg 94%
    22:00 +12°C° 0.2 mm 1 m/S 553 mmHg 94%
    23:00 +11°C° 0.1 mm 0 m/S 553 mmHg 94%

    übermorgen, 25 September, Mittwoch

    Zeit Temperatur Niederschläge Wind Luftdruck Luftfeuchtigkeit
    00:00 +11°C° 0.1 mm 0 m/S 553 mmHg 94%
    01:00 +11°C° 0.1 mm 0 m/S 552 mmHg 94%
    02:00 +10°C° 0 mm 0 m/S 552 mmHg 93%
    03:00 +10°C° 0 mm 0 m/S 552 mmHg 93%
    04:00 +10°C° 0 mm 0 m/S 552 mmHg 93%
    05:00 +11°C° 0 mm 0 m/S 553 mmHg 91%
    06:00 +11°C° 0 mm 0 m/S 553 mmHg 90%
    07:00 +12°C° 0 mm 1 m/S 554 mmHg 89%
    08:00 +14°C° 0.2 mm 1 m/S 555 mmHg 84%
    09:00 +16°C° 0.2 mm 1 m/S 556 mmHg 79%
    10:00 +18°C° 0.2 mm 1 m/S 557 mmHg 74%
    11:00 +18°C° 1.1 mm 1 m/S 556 mmHg 75%
    12:00 +17°C° 1.1 mm 2 m/S 555 mmHg 76%
    13:00 +17°C° 1.1 mm 2 m/S 554 mmHg 78%
    14:00 +17°C° 0.9 mm 2 m/S 554 mmHg 78%
    15:00 +17°C° 0.9 mm 2 m/S 554 mmHg 78%
    16:00 +17°C° 0.9 mm 2 m/S 553 mmHg 79%
    17:00 +15°C° 0.6 mm 1 m/S 553 mmHg 85%
    18:00 +14°C° 0.6 mm 1 m/S 552 mmHg 91%
    19:00 +12°C° 0.6 mm 1 m/S 552 mmHg 96%
    20:00 +12°C° 0.1 mm 1 m/S 552 mmHg 96%
    21:00 +12°C° 0.1 mm 1 m/S 553 mmHg 96%
    22:00 +12°C° 0.1 mm 1 m/S 553 mmHg 96%
    23:00 +11°C° 0 mm 1 m/S 553 mmHg 95%

    26 September, Donnerstag

    Zeit Temperatur Niederschläge Wind Luftdruck Luftfeuchtigkeit
    00:00 +11°C° 0 mm 1 m/S 552 mmHg 95%
    01:00 +11°C° 0 mm 1 m/S 552 mmHg 95%
    02:00 +11°C° 0 mm 1 m/S 552 mmHg 94%
    03:00 +11°C° 0 mm 1 m/S 552 mmHg 94%
    04:00 +11°C° 0 mm 1 m/S 552 mmHg 94%
    05:00 +11°C° 0 mm 1 m/S 552 mmHg 92%
    06:00 +11°C° 0 mm 1 m/S 553 mmHg 91%
    07:00 +12°C° 0 mm 1 m/S 554 mmHg 90%
    08:00 +14°C° 0.1 mm 2 m/S 554 mmHg 83%
    09:00 +15°C° 0.1 mm 2 m/S 555 mmHg 76%
    10:00 +17°C° 0.1 mm 3 m/S 556 mmHg 69%
    11:00 +17°C° 0.3 mm 3 m/S 555 mmHg 71%
    12:00 +16°C° 0.3 mm 3 m/S 554 mmHg 74%
    13:00 +16°C° 0.3 mm 3 m/S 553 mmHg 77%
    14:00 +16°C° 0.3 mm 3 m/S 553 mmHg 75%
    15:00 +16°C° 0.3 mm 3 m/S 553 mmHg 74%
    16:00 +17°C° 0.3 mm 3 m/S 553 mmHg 72%
    17:00 +15°C° 0.2 mm 2 m/S 552 mmHg 80%
    18:00 +13°C° 0.2 mm 2 m/S 551 mmHg 87%
    19:00 +11°C° 0.2 mm 1 m/S 551 mmHg 95%
    20:00 +11°C° 0 mm 1 m/S 551 mmHg 95%
    21:00 +11°C° 0 mm 1 m/S 552 mmHg 95%
    22:00 +11°C° 0 mm 1 m/S 552 mmHg 95%
    23:00 +11°C° 0 mm 1 m/S 552 mmHg 94%

    27 September, Freitag

    Zeit Temperatur Niederschläge Wind Luftdruck Luftfeuchtigkeit
    00:00 +11°C° 0 mm 1 m/S 552 mmHg 93%
    01:00 +11°C° 0 mm 1 m/S 552 mmHg 92%
    02:00 +11°C° 0 mm 1 m/S 551 mmHg 93%
    03:00 +10°C° 0 mm 1 m/S 551 mmHg 93%
    04:00 +9°C° 0 mm 1 m/S 550 mmHg 94%
    05:00 +10°C° 0 mm 1 m/S 551 mmHg 91%
    06:00 +11°C° 0 mm 1 m/S 552 mmHg 88%
    07:00 +12°C° 0 mm 1 m/S 553 mmHg 85%
    08:00 +14°C° 0.1 mm 1 m/S 555 mmHg 77%
    09:00 +16°C° 0.1 mm 2 m/S 556 mmHg 70%
    10:00 +18°C° 0.1 mm 2 m/S 557 mmHg 62%
    11:00 +19°C° 0.4 mm 3 m/S 556 mmHg 62%
    12:00 +19°C° 0.4 mm 3 m/S 556 mmHg 61%
    13:00 +19°C° 0.4 mm 3 m/S 555 mmHg 61%
    14:00 +18°C° 0.6 mm 3 m/S 555 mmHg 66%
    15:00 +18°C° 0.6 mm 2 m/S 554 mmHg 71%
    16:00 +17°C° 0.6 mm 2 m/S 553 mmHg 75%
    17:00 +15°C° 0.4 mm 1 m/S 552 mmHg 82%
    18:00 +13°C° 0.4 mm 1 m/S 552 mmHg 89%
    19:00 +11°C° 0.4 mm 1 m/S 551 mmHg 96%
    20:00 +10°C° 0.1 mm 0 m/S 551 mmHg 96%
    21:00 +10°C° 0.1 mm 0 m/S 551 mmHg 96%
    22:00 +9°C° 0.1 mm 0 m/S 552 mmHg 96%
    23:00 +9°C° 0 mm 0 m/S 551 mmHg 95%

    28 September, Samstag

    Zeit Temperatur Niederschläge Wind Luftdruck Luftfeuchtigkeit
    00:00 +9°C° 0 mm 0 m/S 551 mmHg 94%
    01:00 +9°C° 0 mm 0 m/S 551 mmHg 94%
    02:00 +8°C° 0 mm 0 m/S 551 mmHg 94%
    03:00 +8°C° 0 mm 0 m/S 550 mmHg 93%
    04:00 +8°C° 0 mm 0 m/S 550 mmHg 93%
    05:00 +9°C° 0 mm 0 m/S 551 mmHg 91%
    06:00 +10°C° 0 mm 0 m/S 552 mmHg 88%
    07:00 +11°C° 0 mm 0 m/S 553 mmHg 86%
    08:00 +14°C° 0.1 mm 0 m/S 555 mmHg 76%
    09:00 +18°C° 0.1 mm 1 m/S 556 mmHg 67%
    10:00 +20°C° 0.1 mm 1 m/S 557 mmHg 57%
    11:00 +20°C° 0.4 mm 1 m/S 556 mmHg 58%
    12:00 +21°C° 0.4 mm 1 m/S 556 mmHg 60%
    13:00 +20°C° 0.4 mm 2 m/S 555 mmHg 61%
    14:00 +20°C° 1.1 mm 1 m/S 554 mmHg 68%
    15:00 +19°C° 1.1 mm 1 m/S 553 mmHg 75%
    16:00 +18°C° 1.1 mm 1 m/S 552 mmHg 83%
    17:00 +15°C° 1.2 mm 1 m/S 552 mmHg 87%
    18:00 +14°C° 1.2 mm 1 m/S 552 mmHg 91%
    19:00 +12°C° 1.2 mm 0 m/S 552 mmHg 96%
    20:00 +12°C° 0.6 mm 0 m/S 552 mmHg 96%
    21:00 +11°C° 0.6 mm 0 m/S 552 mmHg 96%
    22:00 +11°C° 0.6 mm 0 m/S 552 mmHg 96%
    23:00 +11°C° 0.1 mm 0 m/S 552 mmHg 96%
    Mehr zeigen